Regional Weather Roundup
Issued by NWS

Home | Current Version | Previous Version | Text Only | Print | Product List | Glossary Off
Versions: 1 2 3 4 5 6 7 8 9 10 11 12 13 14 15 16 17 18 19 20 21 22 23 24 25 26 27 28 29 30 31 32 33 34 35 36 37 38 39 40 41 42 43 44 45 46 47 48 49 50

100
ASUS43 KMKX 202200
RWRWI

WISCONSIN REGIONAL WEATHER ROUNDUP
NATIONAL WEATHER SERVICE MILWAUKEE/SULLIVAN WI
500 PM CDT THU JUL 20 2017

NOTE: "FAIR" INDICATES FEW OR NO CLOUDS BELOW 12,000 FEET WITH NO
SIGNIFICANT WEATHER AND/OR OBSTRUCTIONS TO VISIBILITY.

WIZ001-002-006>008-014>016-023>028-202300-
NORTHWEST WISCONSIN

CITY           SKY/WX    TMP DP  RH WIND       PRES   REMARKS
SUPERIOR ARPT  NOT AVBL
ASHLAND        SUNNY     84  64  50 W6        29.97F HX  85
HAYWARD        SUNNY     84  58  40 VRB6      30.00F HX  83
SIREN          SUNNY     85  61  43 W7        30.01S HX  85
CUMBERLAND     SUNNY     81  61  50 W10       30.02S HX  81
RICE LAKE      SUNNY     85  63  47 W7        30.02S HX  85
CHETEK         SUNNY     84  67  57 MISG      30.01S HX  86
LADYSMITH      SUNNY     85  62  44 NW9       30.02S HX  86
EAU CLAIRE     NOT AVBL
MENOMONIE      MOSUNNY   85  66  53 W8        30.00F HX  87
NEW RICHMOND   SUNNY     84  66  53 W8        30.02F HX  86
OSCEOLA        SUNNY     85  66  52 W9        30.04S HX  87
$$

WIZ003>005-009-010-017-018-202300-
NORTH CENTRAL WISCONSIN

CITY           SKY/WX    TMP DP  RH WIND       PRES   REMARKS
MANITOWISH WTR SUNNY     83  58  43 W10       30.00S HX  82
ARBOR VITAE    SUNNY     85  56  37 NW9       29.98F HX  83
WOODRUFF       SUNNY     85  56  37 NW9       29.98F HX  83
RHINELANDER    SUNNY     86  62  44 NW7       29.99F HX  86
EAGLE RIVER    SUNNY     84  51  32 NW9       29.98F HX  82
LAND O LAKES   SUNNY     83  51  32 NW8       30.00F HX  81
PHILLIPS       SUNNY     83  62  50 W6        29.99F HX  84
TOMAHAWK         N/A     83  60  45 W9        30.00S HX  83
MEDFORD        SUNNY     82  64  52 W7        30.00F HX  84
MERRILL        SUNNY     84  63  47 NW7       29.99F HX  85
$$

WIZ029-030-035-036-043>047-202300-
CENTRAL WISCONSIN

CITY           SKY/WX    TMP DP  RH WIND       PRES   REMARKS
WAUSAU         SUNNY     85  62  46 W13       29.96F HX  85
MOSINEE        MOSUNNY   84  64  51 W13       30.00S HX  86
MARSHFIELD     SUNNY     84  63  49 W10       29.99F HX  85
STEVENS POINT  SUNNY     83  63  50 W9        29.99S HX  84
WAUPACA        MOSUNNY   88  61  40 NW12      29.96S HX  88
WAUTOMA        PTSUNNY   84  70  62 NW8       29.97  HX  88
WISC RAPIDS    MOSUNNY   87  64  46 NW13      29.99S HX  88
CAMP DOUGLAS   NOT AVBL
$$

WIZ011>013-019>022-031-037>040-048>050-202300-
NORTHEAST WISCONSIN

CITY           SKY/WX    TMP DP  RH WIND       PRES   REMARKS
ANTIGO         SUNNY     83  62  49 NW8       29.99S HX  84
SHAWANO        SUNNY     89  58  35 NW12      29.94S HX  88
OCONTO         SUNNY     86  64  46 NW8       29.92S HX  87
STURGEON BAY     N/A     83  67  58 N5        29.93F HX  85
GREEN BAY      SUNNY     87  70  56 NW12      29.93F HX  92
MANITOWOC      NOT AVBL
APPLETON       MOSUNNY   84  61  45 NW12      29.94F HX  84
CLINTONVILLE   SUNNY     86  59  39 NW10      29.95R HX  85
OSHKOSH        CLOUDY    82  67  60 NW9       29.95S HX  84
$$

WIZ032>034-041-042-053>061-202300-
SOUTHWEST WISCONSIN

CITY           SKY/WX    TMP DP  RH WIND       PRES   REMARKS
LA CROSSE      PTSUNNY   86  72  62 NW9       29.98S HX  92
SPARTA         MOSUNNY   81  71  71 N6        30.00F HX  84
VIROQUA        PTSUNNY   81  73  78 N7        30.01S HX  86
BOSCOBEL       MOSUNNY   89  71  55 N5        29.97S HX  95
PRAIRIE DU CHI SUNNY     85  69  57 NW6       29.97S HX  89
PLATTEVILLE    SUNNY     85  76  74 CALM      29.99F HX  95
$$

WIZ056-057-062-063-064-067-068-202300-
SOUTH CENTRAL WISCONSIN

CITY           SKY/WX    TMP DP  RH WIND       PRES   REMARKS
REEDSBURG      SUNNY     84  69  60 N9        29.97S HX  87
BARABOO/DELLS  SUNNY     85  64  48 NW6       29.98S HX  86
LONE ROCK      SUNNY     86  72  62 NW5       29.96S HX  92
MINERAL POINT  SUNNY     86  73  66 N6        30.00S HX  93
MADISON        CLOUDY    87  73  62 N7        29.96S HX  94
MIDDLETON      CLOUDY    87  71  58 N7        29.98R HX  93
WATERTOWN      MOSUNNY   84  74  70 N5        29.96F HX  91
MONROE         MOSUNNY   84  72  65 N3        29.98S HX  89
JANESVILLE     PTSUNNY   86  73  66 NW6       29.96S HX  93
$$

WIZ051-052-058>065-066-070>072-202300-
SOUTHEAST WISCONSIN

CITY           SKY/WX    TMP DP  RH WIND       PRES   REMARKS
MILWAUKEE      PTSUNNY   77  70  79 SE9       29.95F
WAUKESHA       MOSUNNY   82  70  65 NW7       29.97F HX  86
MILWAUKEE/TIMM MOSUNNY   84  66  54 SE6       29.96F HX  86
RACINE         SUNNY     77  69  76 SE7       29.98F
KENOSHA        SUNNY     80  70  71 E7        29.97S HX  83
FOND DU LAC    MOSUNNY   86  67  52 NW10      29.95F HX  89
SHEBOYGAN      MOSUNNY   85  72  65 NW10      29.94F HX  91
WEST BEND      SUNNY     82  70  65 NW9       29.96F HX  86
JUNEAU         SUNNY     83  70  63 NW5       29.97F HX  87
$$

LSZ147-162-202300-
LAKE SUPERIOR

STATION/POSITION TIME  TEMP    WIND        PRES    WAVE
                       AIR SEA DIR/SP/G            HT/PER
                 (UTC) (F)     (DEG/KT/KT) (MB)    (FT/S)
W MID LAKE BUOY  2050   54 48  230/  8/ 10 1013.9F   1/ 3
DEVILS ISLAND    2100   72     230/  8/ 12 1014.0R
PORT WING        2100   81     260/  7/ 11   N/A
SAXON HARBOR     2140   85      60/  2/  3 1014.2F
$$

LMZ867-665-643>646-202300-
LAKE MICHIGAN

STATION/POSITION TIME  TEMP    WIND        PRES    WAVE
                       AIR SEA DIR/SP/G            HT/PER
                 (UTC) (F)     (DEG/KT/KT) (MB)    (FT/S)
CHAMBERS ISLAND  2140   86     220/  1/  5 1012.5S
S GREEN BAY BUOY 2130   79 74  320/  4/  6 1013.1F
N MID LAKE BUOY  2050   69 66  180/  6/  6 1013.8R   2/ 6
NORTHPORT PIER   2140   86     280/  2/  5 1012.5F
KEWAUNEE LAKESHO 2130   72     170/  5/  6 1013.2F
SHEBOYGAN LAKESH 2100   70     170/ 17/ 18 1013.3F
PORT WASHINGTON  2140   76     190/  8/ 10 1015.2F
ATWATER BUOY     2009   70 69  140/  8/ 10 1015.0R
MILWAUKEE LAKESH 2130   70     150/  4/  5   N/A
S MID LAKE BUOY  2050   72 72  130/  4/  4 1014.8R   2/ 5
KENOSHA   LAKESH 2100   75     100/  2/  2 1014.2
$$

TC  - TEMPERATURE IN CELSIUS
VSB - VISIBILITY IN STATUTE MILES
WCI - WIND CHILL INDEX
HX  - HEAT INDEX





USA.gov is the U.S. government's official web portal to all federal, state and local government web resources and services.